0 HST
1 20580U 90037B   25212.92387956  .00006807  00000-0  25106-3 0  9993
2 20580  28.4677 101.5829 0001721 222.1842 137.8621 15.25735314739529
0 ISS (ZARYA)
1 25544U 98067A   25213.12960715  .00012083  00000-0  21736-3 0  9990
2 25544  51.6345  84.3189 0001828 139.3559 220.7567 15.50261247522138
0 CXO
1 25867U 99040B   25214.39624013  .00000672  00000-0  00000-0 0  9997
2 25867  50.4225 127.7080 8348166 310.0398   0.6414  0.37803800 16116